User: anonymous   Login
Location: Unspecified
(0.0000°N, 0.0000°E)
Time: 10:59:20
(UTC+00:00)
Language:

ONEWEB-0586 - Orbit

View from above orbital plane
View from above orbital plane
View from above satellite
View from above satellite

Ground track
Ground track

The orbit is defined by the following mean orbital elements,

1 54653U          26145.56695509 +.00000000 +00000-0 -12426-3 0 00008
2 54653  87.9254 248.4959 0002124  97.2282 262.9093 13.21827329    09
Epoch (UTC): 25 May 2026 13:36:24
Eccentricity: 0.0002124
inclination: 87.9254°
perigee height: 1176 km
apogee height: 1179 km
right ascension of ascending node: 248.4959°
argument of perigee: 97.2282°
revolutions per day: 13.21827329
mean anomaly at epoch: 262.9093°

The dashed part of the orbit path shows where the satellite is in the earth's shadow,  

DLR